Simultaneous Nadir Overpasses (SNOs) Predictions

Prediction of SNOs between AQUA and METOP-C Satellite Orbit:

Table of predicted SNOs for the next 14.0 days since TLE Epoch: 5/29/2021
Index Date (AQUA) Time (AQUA) Lat,Lon (AQUA) SZA (AQUA ) Date (METOP-C) Time (METOP-C) Lat,Lon (METOP-C) SZA (METOP-C ) Distance(km) Time Diff (sec)
1 05/29/2021 22:49:26 -73.74, 12.04 128.05 05/29/2021 22:48:43 -73.71, 12.09 128.07 3.29 43
2 05/29/2021 23:38:53 73.78, 179.58 52.00 05/29/2021 23:39:20 73.77, 179.57 51.98 1.09 27
3 06/01/2021 18:23:40 -73.70, 78.56 128.48 06/01/2021 18:23:04 -73.70, 78.47 128.47 2.76 36
4 06/01/2021 19:13:09 73.80,-114.03 51.63 06/01/2021 19:13:41 73.80,-113.95 51.62 2.29 32
5 06/04/2021 13:57:56 -73.72, 144.95 128.80 06/04/2021 13:57:25 -73.74, 144.96 128.78 1.86 31
6 06/04/2021 14:47:24 73.77, -47.53 51.26 06/04/2021 14:48:03 73.78, -47.60 51.27 2.29 39
7 06/07/2021 09:32:12 -73.75,-148.68 129.05 06/07/2021 09:31:47 -73.72,-148.67 129.08 3.21 25
8 06/07/2021 10:21:40 73.80, 18.84 51.01 06/07/2021 10:22:24 73.81, 18.87 51.01 1.25 44
9 06/10/2021 05:06:26 -73.73, -82.21 129.30 06/10/2021 05:06:07 -73.75, -82.19 129.28 1.97 19
10 06/10/2021 05:55:54 73.79, 85.30 50.76 06/10/2021 05:56:45 73.78, 85.22 50.75 2.69 51



Historial Predications of SNOs between AQUA and METOP-C
